User: anonymous   Login
Location: ????????
(37.9452°N, 23.1472°E)
Time: 15:41:50
(UTC+00:00)
Language:

Cosmos 2263 Rocket - Orbit

View from above orbital plane
View from above orbital plane
View from above satellite
View from above satellite

Ground track
Ground track

The orbit data is extracted from the following two-line orbital elements,

1 22803U 93059B   25193.35520872  .00000147  00000-0  96570-4 0  9996
2 22803  70.9897 157.9247 0018580 222.2362 137.7331 14.17181147645749
Epoch (UTC): 12 July 2025 08:31:30
Eccentricity: 0.0018580
inclination: 70.9897°
perigee height: 821 km
apogee height: 848 km
right ascension of ascending node: 157.9247°
argument of perigee: 222.2362°
revolutions per day: 14.17181147
mean anomaly at epoch: 137.7331°
orbit number at epoch: 64574

The dashed part of the orbit path shows where the satellite is in the earth's shadow,  

DLR